This is the latest recevied weather packets stored in our database for station/object W2JGA. If no packets are shown the sender has not sent any weather packets the latest 10 day(s).
| Time | Temp. | Humidity | Pressure | Rain* | Wind** | Luminosity | Snow |
|---|---|---|---|---|---|---|---|
| 1777677318 | 29.44° C | 24% | 1012.4 hPa | 0 mm | - | 483 W/m² | - |
| 1777677016 | 30° C | 24% | 1012.4 hPa | 0 mm | - | 476 W/m² | - |
| 1777676715 | 30° C | 24% | 1012.4 hPa | 0 mm | - | 505 W/m² | - |
| 1777676412 | 29.44° C | 24% | 1012.9 hPa | 0 mm | - | 508 W/m² | - |
| 1777676110 | 30° C | 25% | 1012.4 hPa | 0 mm | - | 525 W/m² | - |
| 1777675805 | 29.44° C | 25% | 1012.4 hPa | 0 mm | - | 537 W/m² | - |
| 1777675503 | 29.44° C | 25% | 1012.9 hPa | 0 mm | - | 557 W/m² | - |
| 1777675200 | 29.44° C | 26% | 1012.4 hPa | 0 mm | - | 566 W/m² | - |
| 1777674896 | 30° C | 26% | 1012.9 hPa | 0 mm | - | 592 W/m² | - |
| 1777674592 | 29.44° C | 26% | 1012.9 hPa | 0 mm | - | 607 W/m² | - |
| 1777674290 | 29.44° C | 26% | 1012.9 hPa | 0 mm | - | 608 W/m² | - |
| 1777673986 | 29.44° C | 26% | 1012.9 hPa | 0 mm | - | 607 W/m² | - |
| 1777673682 | 28.89° C | 27% | 1013.2 hPa | 0 mm | - | 596 W/m² | - |
| 1777673380 | 29.44° C | 27% | 1013.2 hPa | 0 mm | - | 639 W/m² | - |
| 1777673078 | 30° C | 27% | 1013.2 hPa | 0 mm | - | 649 W/m² | - |
| 1777672773 | 29.44° C | 27% | 1013.2 hPa | 0 mm | - | 632 W/m² | - |
| 1777672471 | 28.89° C | 27% | 1013.2 hPa | 0 mm | - | 620 W/m² | - |
| 1777672166 | 28.89° C | 27% | 1013.2 hPa | 0 mm | - | 629 W/m² | - |
| 1777671862 | 28.33° C | 28% | 1013.2 hPa | 0 mm | - | 657 W/m² | - |
| 1777671557 | 28.33° C | 28% | 1013.6 hPa | 0 mm | - | 656 W/m² | - |
| 1777671255 | 28.33° C | 28% | 1013.6 hPa | 0 mm | - | 649 W/m² | - |
| 1777670950 | 28.89° C | 28% | 1013.6 hPa | 0 mm | - | 679 W/m² | - |
| 1777670647 | 28.89° C | 28% | 1013.9 hPa | 0 mm | - | 685 W/m² | - |
| 1777670343 | 27.78° C | 29% | 1013.6 hPa | 0 mm | - | 672 W/m² | - |
| 1777670041 | 28.33° C | 29% | 1013.9 hPa | 0 mm | - | 660 W/m² | - |
* Rain latest hour (hover to see other rain measurements)
** Current wind speed in m/s (hover to see current wind gust speed)